Regional Weather Roundup
Issued by NWS Green Bay, WI

Home | Current Version | Previous Version | Graphics & Text | Print | Product List | Glossary Off
Versions: 1 2 3 4 5 6 7 8 9 10 11 12 13 14 15 16 17 18 19 20 21 22 23 24 25 26 27 28 29 30 31 32 33 34 35 36 37 38 39 40 41 42 43 44 45 46 47 48 49 50

359
ASUS43 KGRB 081511
RWRGRB

NORTH-CENTRAL AND NORTHEAST WISCONSIN REGIONAL WEATHER ROUNDUP
NATIONAL WEATHER SERVICE GREEN BAY WI
900 AM CST MON FEB 08 2016

WIZ005-009-010>012-018-019-081600-
NORTH CENTRAL WISCONSIN

CITY           SKY/WX    TMP DP  RH WIND       PRES   REMARKS
IRONWOOD       CLOUDY    18  16  93 NW13      29.71R WCI   4
MANITOWISH WTR LGT SNOW  19  18  96 NW14      29.67R WCI   5
ARBOR VITAE    CLOUDY    22  18  86 N10       29.67R
EAGLE RIVER    FLURRIES  19  14  81 N12G17    29.65R WCI   6
LAND O LAKES   LGT SNOW  19  15  85 N12G18    29.66R WCI   6
RHINELANDER    CLOUDY    20  14  77 N7        29.65R
PHILLIPS       CLOUDY    18  15  86 N9G17     29.69R WCI   7
ANTIGO         CLOUDY    24  20  87 N18       29.61R WCI   9
TOMAHAWK       CLOUDY    21  15  79 N12G25    29.67R WCI   9
MERRILL        CLOUDY    24  19  81 N10       29.66R
$$

WIZ013-073-081600-
NORTHEAST WISCONSIN

CITY           SKY/WX    TMP DP  RH WIND       PRES   REMARKS
IRON MOUNTAIN  LGT SNOW  26  20  77 N15       29.60R
MARINETTE      CLOUDY    34  28  80 N5        29.59R
OCONTO         CLOUDY    32  32 100 NW3       29.59S
$$

WIZ017-030-035>037-045-081600-
CENTRAL WISCONSIN

CITY           SKY/WX    TMP DP  RH WIND       PRES   REMARKS
MEDFORD        CLOUDY    19  15  88 NW13      29.67R WCI   5
WAUSAU         CLOUDY    27  19  72 NW12      29.62R
MOSINEE        CLOUDY    23  19  86 NW3       29.64R
MARSHFIELD     CLOUDY    19  12  74 NW21      29.66R WCI   3
WISC RAPIDS    CLOUDY    20  13  74 NW15G21   29.69R WCI   6
STEVENS POINT  CLOUDY    20  15  81 W7        29.65R
WAUPACA        FLURRIES  26  19  74 W9G16     29.65R
SHAWANO        CLOUDY    32  24  73 NW6       29.62R
CLINTONVILLE   CLOUDY    30  21  69 NW9       29.62R
WAUTOMA        CLOUDY    22  16  78 NW14G23   29.67R WCI   9
$$

WIZ038-039-048-051-081600-
FOX VALLEY

CITY           SKY/WX    TMP DP  RH WIND       PRES   REMARKS
NWS GREEN BAY  CLOUDY    31  25  78 W8        29.60R
APPLETON       CLOUDY    27  19  74 W14       29.60R
OSHKOSH        CLOUDY    25  18  74 W18G24    29.62R
FOND DU LAC    NOT AVBL
$$

WIZ022-050-052-081600-
EAST CENTRAL WISCONSIN

CITY           SKY/WX    TMP DP  RH WIND       PRES   REMARKS
EPHRAIM        CLOUDY    33  30  88 N5        29.57R
STURGEON BAY   CLOUDY    34  27  75 NW5       29.60S
MANITOWOC      LGT SNOW  31  28  89 NW10      29.61R FOG
SHEBOYGAN      CLOUDY    29  23  78 NW13      29.60R
$$

LMZ563-521-522-541>543-081600-
LAKESHORE

STATION/POSITION TIME  TEMP    WIND        PRES    VSBY  WAVE
                       AIR SEA DIR/SP/G                  HT/PER
                 (UTC) (F)     (DEG/KT/KT) (MB)    (MI)  (FT/S)
SHEBOYGAN LKSHOR 1500   30     310/  8/ 11 1003.5R
KEWAUNEE LKSHORE 1400   33     290/  6/ 10 1001.2R
NORTHPORT PIER   1400   34     300/  4/  6 1002.0R
CHAMBERS ISLAND  1400   34     300/  3/  6 1002.0S
MENOMINEE LKSHOR 1400   33     310/  4     1000.8R
$$




USA.gov is the U.S. government's official web portal to all federal, state and local government web resources and services.